Weather History for LGKV - November, 2013

Change the Weather History Date:

Monday, November 11, 2013

  Actual Average Record
Temperature  
Mean Temperature 63 °F -  
Max Temperature 69 °F 59 °F 69 °F (2010)
Min Temperature 57 °F 44 °F 37 °F (2007)
Degree Days  
Heating Degree Days 2    
Growing Degree Days 13 (Base 50)    
Moisture  
Dew Point 58 °F    
Average Humidity 83    
Maximum Humidity 94    
Minimum Humidity 73    
Precipitation  
Precipitation 0.00 in - - ()
Sea Level Pressure  
Sea Level Pressure 29.88 in    
Wind  
Wind Speed 7 mph ()    
Max Wind Speed 12 mph    
Max Gust Speed -    
Visibility 6.2 miles    
Events Rain    
Averages and records for this station are not official NWS values.
T = Trace of Precipitation, MM = Missing Value Source: Averaged Metar Reports

Daily Weather History Graph

Daily Weather History Graph

Search for Another Location

Airport or City:

Trip Planner

Search our weather history database for the weather conditions in past years. The results will help you decide how hot, cold, wet, or windy it might be!

Date:

Astronomy

Nov. 11, 2013 Rise Set
Actual Time 7:03 AM EET 5:06 PM EET
Civil Twilight 6:34 AM EET 5:35 PM EET
Nautical Twilight 6:01 AM EET 6:08 PM EET
Astronomical Twilight 5:29 AM EET 6:41 PM EET
Moon 1:38 PM EET (11/11) 12:25 AM EET (11/11)
Length of Visible Light 11h 00m
Length of Day
10h 02m
Waxing Gibbous, 63% of the Moon is Illuminated
Nov 11
Waxing Gibbous
Nov 17
Full
Nov 25
Last Quarter
Dec 3
New
Dec 9
First Quarter

Hourly Weather History & Observations

Time (EET) Temp. Dew Point Humidity Pressure Visibility Wind Dir Wind Speed Gust Speed Precip Events Conditions
5:20 AM 57.2 °F 53.6 °F 88% 29.83 in 6.2 mi ENE 8.1 mph - N/A   Mostly Cloudy
5:50 AM 57.2 °F 53.6 °F 88% 29.83 in 6.2 mi NE 8.1 mph - N/A   Mostly Cloudy
6:20 AM 57.2 °F 53.6 °F 88% 29.83 in 6.2 mi NE 8.1 mph - N/A   Mostly Cloudy
6:50 AM 57.2 °F 53.6 °F 88% 29.83 in 6.2 mi NNE 10.4 mph - N/A   Mostly Cloudy
7:20 AM 57.2 °F 53.6 °F 88% 29.83 in 6.2 mi NE 10.4 mph - N/A   Overcast
7:50 AM 59.0 °F 55.4 °F 88% 29.86 in 6.2 mi NNE 10.4 mph - N/A   Overcast
8:20 AM 60.8 °F 57.2 °F 88% 29.86 in 6.2 mi NNE 10.4 mph - N/A   Mostly Cloudy
8:50 AM 60.8 °F 57.2 °F 88% 29.86 in 6.2 mi NNE 10.4 mph - N/A   Mostly Cloudy
9:20 AM 60.8 °F 57.2 °F 88% 29.86 in 6.2 mi NNE 8.1 mph - N/A   Mostly Cloudy
9:50 AM 60.8 °F 55.4 °F 82% 29.86 in 6.2 mi NE 9.2 mph - N/A   Mostly Cloudy
10:20 AM 60.8 °F 55.4 °F 82% 29.86 in 6.2 mi NE 11.5 mph - N/A   Mostly Cloudy
10:50 AM 64.4 °F 60.8 °F 88% 29.86 in 6.2 mi NNE 10.4 mph - N/A   Scattered Clouds
11:20 AM 64.4 °F 57.2 °F 77% 29.86 in 6.2 mi NNE 10.4 mph - N/A   Scattered Clouds
11:50 AM 66.2 °F 57.2 °F 73% 29.86 in 6.2 mi NNE 10.4 mph - N/A   Scattered Clouds
12:20 PM 66.2 °F 57.2 °F 73% 29.86 in 6.2 mi NNE 10.4 mph - N/A   Scattered Clouds
12:50 PM 69.8 °F 60.8 °F 73% 29.89 in 6.2 mi ESE 5.8 mph - N/A   Mostly Cloudy
1:20 PM 69.8 °F 60.8 °F 73% 29.89 in 6.2 mi ESE 5.8 mph - N/A   Scattered Clouds
1:50 PM 68.0 °F 60.8 °F 78% 29.89 in 6.2 mi SE 5.8 mph - N/A   Mostly Cloudy
2:20 PM 68.0 °F 60.8 °F 78% 29.89 in 6.2 mi SE 5.8 mph - N/A   Mostly Cloudy
2:50 PM 68.0 °F 60.8 °F 78% 29.89 in 6.2 mi East 4.6 mph - N/A   Mostly Cloudy
3:20 PM 68.0 °F 60.8 °F 78% 29.89 in 6.2 mi East 4.6 mph - N/A   Mostly Cloudy
3:50 PM 66.2 °F 59.0 °F 78% 29.89 in 6.2 mi ESE 5.8 mph - N/A   Mostly Cloudy
4:20 PM 66.2 °F 59.0 °F 78% 29.89 in 6.2 mi ESE 5.8 mph - N/A   Mostly Cloudy
4:50 PM 64.4 °F 59.0 °F 83% 29.89 in 6.2 mi Calm Calm - N/A   Mostly Cloudy
5:20 PM 64.4 °F 59.0 °F 83% 29.92 in 6.2 mi Calm Calm - N/A   Mostly Cloudy
5:50 PM 62.6 °F 57.2 °F 82% 29.92 in 6.2 mi Calm Calm - N/A   Mostly Cloudy
6:20 PM 62.6 °F 57.2 °F 82% 29.95 in 6.2 mi Calm Calm - N/A   Mostly Cloudy
6:50 PM 62.6 °F 59.0 °F 88% 29.95 in 6.2 mi Calm Calm - N/A   Mostly Cloudy
7:20 PM 62.6 °F 60.8 °F 94% 29.98 in 6.2 mi East 4.6 mph - N/A Rain Light Rain
7:50 PM 62.6 °F 60.8 °F 94% 29.98 in 5.0 mi ESE 5.8 mph - N/A Rain Light Rain